DW6780 Weather Reports


Display with metric or nautical units.
time (UTC)temp
F
wind
direction
speed
MPH
gust
MPH
rain 1hr
in
rain 24hr
in
rain mn
in
humidity
%
barometer
mb
20260506061534 75 5 0.0 0.0 0.00 0.00 0.00 90 1004.8
20260506044520 76 5 0.0 0.0 0.00 0.00 0.00 90 1004.7
20260506043017 76 5 0.0 0.0 0.00 0.00 0.00 89 1004.7
20260506041517 76 5 0.0 0.0 0.00 0.00 0.00 89 1004.5
20260506040024 77 5 0.0 0.0 0.00 0.00 0.00 88 1004.4
20260506034517 77 5 0.0 0.0 0.00 0.00 0.00 88 1004.1
20260506033016 77 5 0.0 0.0 0.00 0.00 0.00 87 1004.2
20260506031521 78 5 0.0 0.0 0.00 0.00 0.00 86 1004.0
20260506030016 78 5 0.0 0.0 0.00 0.00 0.00 85 1003.8
20260506024529 78 5 0.0 0.0 0.00 0.00 0.00 84 1003.6
20260506023013 78 5 0.0 0.0 0.00 0.00 0.00 84 1003.4
20260506021513 79 5 0.0 0.0 0.00 0.00 0.00 83 1003.1
20260506020012 79 5 0.0 0.0 0.00 0.00 0.00 83 1002.7
20260506014515 79 5 0.0 0.0 0.00 0.00 0.00 82 1002.6
20260506013011 80 5 0.0 0.0 0.00 0.00 0.00 81 1002.6
20260506011520 81 5 0.0 0.0 0.00 0.00 0.00 80 1002.6
20260506010009 81 5 0.0 0.0 0.00 0.00 0.00 79 1002.6
20260506004509 82 5 0.0 0.0 0.00 0.00 0.00 78 1002.6
20260506003013 82 5 0.0 0.0 0.00 0.00 0.00 77 1002.6
20260506001509 82 5 0.0 0.0 0.00 0.00 0.00 76 1002.8
20260506000008 83 5 0.0 0.0 0.00 0.00 0.00 76 1002.6
20260505234517 83 5 0.0 0.0 0.00 0.00 0.00 75 1002.4
20260505233006 83 5 0.0 0.0 0.00 0.00 0.00 75 1002.3
20260505231507 83 5 0.0 0.0 0.00 0.00 0.00 74 1002.2
20260505230009 84 5 0.0 0.0 0.00 0.00 0.00 74 1002.3
20260505224506 84 5 0.0 0.0 0.00 0.00 0.00 74 1002.2
20260505223005 85 5 0.0 0.0 0.00 0.00 0.00 72 1002.1
20260505221504 85 5 0.0 0.0 0.00 0.00 0.00 72 1002.1
20260505220003 85 5 0.0 0.0 0.00 0.00 0.00 71 1002.1
20260505214502 85 5 0.0 0.0 0.00 0.00 0.00 71 1002.4
20260505213101 86 5 0.0 0.0 0.00 0.00 0.00 70 1002.5
20260505211558 86 5 0.0 0.0 0.00 0.00 0.00 72 1002.8
20260505210057 85 5 0.0 0.0 0.00 0.00 0.00 72 1002.7
20260505204601 85 5 0.0 0.0 0.00 0.00 0.00 73 1002.8
20260505203101 85 5 0.0 0.0 0.00 0.00 0.00 73 1003.1
20260505201551 85 5 0.0 0.0 0.00 0.00 0.00 74 1003.4
20260505200050 84 5 0.0 0.0 0.00 0.00 0.00 74 1003.7
20260505194605 84 5 0.0 0.0 0.00 0.00 0.00 74 1003.9
20260505193049 84 5 0.0 0.0 0.00 0.00 0.00 73 1004.1
20260505191558 84 5 0.0 0.0 0.00 0.00 0.00 73 1004.1
20260505190048 83 5 0.0 0.0 0.00 0.00 0.00 74 1004.2
20260505184541 82 5 0.0 0.0 0.00 0.00 0.00 76 1004.4
20260505183040 80 5 0.0 0.0 0.00 0.00 0.00 79 1004.7
20260505181537 79 5 0.0 0.0 0.00 0.00 0.00 80 1004.9
20260505180043 78 5 0.0 0.0 0.00 0.00 0.00 81 1005.0
20260505174532 77 5 0.0 0.0 0.00 0.00 0.00 83 1005.3
20260505173027 76 5 0.0 0.0 0.00 0.00 0.00 84 1005.4
20260505171524 76 5 0.0 0.0 0.00 0.00 0.00 85 1005.6
20260505170022 75 5 0.0 0.0 0.00 0.00 0.00 86 1005.6
20260505164519 74 5 0.0 0.0 0.00 0.00 0.00 87 1005.6
20260505163018 74 5 0.0 0.0 0.00 0.00 0.00 87 1005.4
20260505161514 73 5 0.0 0.0 0.00 0.00 0.00 89 1005.4
20260505153010 72 5 0.0 0.0 0.00 0.00 0.00 90 1005.6
20260505151513 71 5 0.0 0.0 0.00 0.00 0.00 90 1005.6
20260505124601 0 0.0 0.0 0.00 0.00 0.00 1004.4
20260505123059 0 0.0 0.0 0.00 0.00 0.00 1004.3
20260505121618 70 5 0.0 0.0 0.00 0.00 0.00 91 1004.0
20260505120049 70 5 0.0 0.0 0.00 0.00 0.00 91 1003.8
20260505114548 70 5 0.0 0.0 0.00 0.00 0.00 91 1003.7
20260505113052 70 5 0.0 0.0 0.00 0.00 0.00 91 1003.7
20260505111549 70 5 0.0 0.0 0.00 0.00 0.00 91 1003.7
20260505101544 70 5 0.0 0.0 0.00 0.00 0.00 90 1003.9
20260505094544 70 5 0.0 0.0 0.00 0.00 0.00 89 1003.9
20260505093040 70 5 0.0 0.0 0.00 0.00 0.00 89 1004.2
20260505091550 70 5 0.0 0.0 0.00 0.00 0.00 89 1004.3
20260505090053 70 5 0.0 0.0 0.00 0.00 0.00 89 1004.4
20260505084538 70 5 0.0 0.0 0.00 0.00 0.00 90 1004.3
20260505083046 70 5 0.0 0.0 0.00 0.00 0.00 89 1004.4
20260505081540 70 5 0.0 0.0 0.00 0.00 0.00 89 1004.7
20260505080044 70 5 0.0 0.0 0.00 0.00 0.00 88 1004.8
20260505074530 70 5 0.0 0.0 0.00 0.00 0.00 88 1005.1
20260505073031 71 5 0.0 0.0 0.00 0.00 0.00 88 1005.2
20260505071537 71 5 0.0 0.0 0.00 0.00 0.00 88 1005.4
20260505070029 71 5 0.0 0.0 0.00 0.00 0.00 88 1005.6